Regional Weather Roundup
Issued by NWS

Home | Current Version | Previous Version | Graphics & Text | Print | Product List | Glossary Off
Versions: 1 2 3 4 5 6 7 8 9 10 11 12 13 14 15 16 17 18 19 20 21 22 23 24 25 26 27 28 29 30 31 32 33 34 35 36 37 38 39 40 41 42 43 44 45 46 47 48 49 50

000
ASUS43 KDMX 061007
RWRIA

WEATHER ROUNDUP FOR IOWA
NATIONAL WEATHER SERVICE DES MOINES IA
400 AM CST FRI MAR 06 2015

NOTE: "FAIR" INDICATES FEW OR NO CLOUDS BELOW 12,000 FEET WITH NO
SIGNIFICANT WEATHER AND/OR OBSTRUCTIONS TO VISIBILITY.

* - THESE STATIONS ARE NOT NWS STATIONS...THUS NOT UNDER NWS
QUALITY CONTROL.  THEY ALSO DO NOT REPORT WEATHER SUCH
AS PRECIPITATION OR FOG.

IAZ001>003-012>014-020>022-031>034-043>046-061100-
   NORTHWEST IOWA

CITY           SKY/WX    TMP DP  RH WIND       PRES   REMARKS
CARROLL *      PTCLDY    23  12  63 S18G25    30.16F WCI   9
CHEROKEE *     CLEAR     19  10  68 S9        30.14F WCI   9
DENISON *      CLEAR     21  12  68 S9G16     30.15F WCI  11
LE MARS *      CLEAR     21  12  68 S9        30.14F WCI  11
ORANGE CITY *  CLEAR     18  10  73 S8        30.11F WCI   7
SHELDON *      CLEAR     18   9  68 S8        30.10F WCI   7
SIOUX CITY     CLEAR     18   9  68 SE7       30.15F WCI   9
SPENCER        CLEAR     15   6  67 S7        30.13F WCI   5
STORM LAKE *   CLEAR     21  12  68 SW18      30.13F WCI   6
$$

IAZ055>058-069>071-079>083-090>094-061100-
   SOUTHWEST IOWA

CITY           SKY/WX    TMP DP  RH WIND       PRES   REMARKS
ATLANTIC *     CLEAR     23  12  63 S13       30.20F WCI  11
AUDUBON *      CLEAR     23  12  63 S12       30.18F WCI  12
CLARINDA *     PTCLDY    23  14  68 S13       30.25F WCI  11
COUNCIL BLFS * CLEAR     25  14  63 S13       30.17F WCI  13
CRESTON *      CLOUDY    21  12  68 S22       30.23F WCI   5
HARLAN  *      CLEAR     21  12  68 S12       30.22F WCI   9
LAMONI         MOCLDY    19  10  68 S12       30.28F WCI   7
RED OAK *      CLEAR     23  14  68 S9        30.23F WCI  13
SHENANDOAH *   CLEAR     23  16  74 S10       30.24F WCI  12
$$

IAZ047>049-059>061-072>074-084-061100-
   CENTRAL IOWA

CITY           SKY/WX    TMP DP  RH WIND       PRES   REMARKS
AMES           CLOUDY    18   8  65 S10       30.23F WCI   6
ANKENY *       CLOUDY    21  10  63 S10       30.26F WCI  10
CHARITON *     CLOUDY    21  10  63 S15G22    30.29F WCI   8
DES MOINES     MOCLDY    22  10  60 S16       30.25F WCI   8
GRINNELL*      MOCLDY    12   7  79 S16       30.28F WCI  -4
KNOXVILLE *    CLOUDY    19   9  63 S15       30.28F WCI   5
MARSHALLTOWN   CLOUDY    14   5  67 SE8       30.26F WCI   3
PELLA *        PTCLDY    16  10  79 S10       30.32F WCI   3
PERRY *          N/A     21  14  73 S12       30.21F WCI   9
$$

IAZ004>006-015-016-023>025-035-036-061100-
   NORTH CENTRAL IOWA

CITY           SKY/WX    TMP DP  RH WIND       PRES   REMARKS
ALGONA *       CLEAR     16  16 100 S18       30.15F WCI  -1
CLARION *      CLOUDY    14   9  79 S17       30.18F WCI  -3
ESTHERVILLE    CLEAR     11   5  77 S12       30.12F WCI  -3
FORT DODGE *     N/A     18   7  62 S13       30.18F WCI   4
MASON CITY     CLOUDY     7   1  76 S14       30.19F WCI -10
FOREST CITY *  MOCLDY    14   3  62 S10       30.16F WCI   1
IOWA FALLS *   CLOUDY    14   7  73 S14       30.22F WCI  -1
$$

IAZ007>011-017>019-026>030-037>042-050>054-066-061100-
   NORTHEAST IOWA

CITY           SKY/WX    TMP DP  RH WIND       PRES   REMARKS
CEDAR RAPIDS   CLEAR      5  -1  76 S9        30.35F WCI  -9
CHARLES CITY * CLOUDY     7   0  72 S15       30.24F WCI -11
CLINTON *      PTCLDY     1  -6  71 S7        30.44F WCI -11
DECORAH *      PTCLDY     7  -2  66 S12       30.25F WCI  -9
DUBUQUE        PTCLDY     1  -5  75 S14       30.33F WCI -17
MONTICELLO *   CLOUDY     1  -4  78 S10       30.37F WCI -14
OELWEIN *      PTCLDY     3  -4  72 S14       30.29F WCI -15
WATERLOO       CLEAR      5  -1  76 S12       30.28F WCI -11
$$

IAZ064-065-067-068-078-061100-
   EAST CENTRAL IOWA

CITY           SKY/WX    TMP DP  RH WIND       PRES   REMARKS
DAVENPORT      PTCLDY     5  -4  66 S12       30.41F WCI -11
IOWA CITY      CLEAR      4  -1  80 S3        30.41F
MT. PLEASANT * CLEAR      9   1  72 S12       30.41F WCI  -6
MUSCATINE *    PTCLDY     5   0  78 S5        30.44F WCI  -4
QUAD CITIES    PTCLDY     6  -3  66 CALM      30.43F
$$

IAZ062-063-075>077-085>089-095>099-061100-
   SOUTHEAST IOWA

CITY           SKY/WX    TMP DP  RH WIND       PRES   REMARKS
BURLINGTON     CLEAR      9   1  70 S13       30.44S WCI  -7
FAIRFIELD *    PTCLDY    10   3  72 S9        30.39F WCI  -2
FORT MADISON * CLEAR      7   1  78 S9        30.43F WCI  -7
KEOKUK *       CLEAR     12   5  73 S8        30.43F WCI   1
OSKALOOSA *    CLOUDY    14   9  79 S13       30.34F WCI   0
CENTERVILLE *  CLOUDY    18  10  73 S10       30.34F WCI   6
OTTUMWA        PTCLDY    15   6  67 S13       30.34F WCI   1
WASHINGTON *   MOCLDY    10   5  79 S14       30.39F WCI  -5
$$

ABBREVIATIONS USED IN REMARKS
   TC - TEMPERATURES IN CELSIUS
  WCI - WIND CHILL INDEX
   HX - HEAT INDEX
  VSB - VISIBILITY
$$



USA.gov is the U.S. government's official web portal to all federal, state and local government web resources and services.